Weather History for Vidalia, GA

Change the Weather History Date:

Wednesday, February 6, 2013

  Actual Average (KAZE) Record (KAZE)
Temperature  
Mean Temperature 63 °F -  
Max Temperature 75 °F 57 °F 76 °F (2014)
Min Temperature 51 °F 27 °F 34 °F (2014)
Degree Days  
Heating Degree Days 2    
Growing Degree Days 13 (Base 50)    
Moisture  
Dew Point 52 °F    
Average Humidity 72    
Maximum Humidity 100    
Minimum Humidity 41    
Precipitation  
Precipitation 0.00 in - - ()
Sea Level Pressure  
Sea Level Pressure 30.11 in    
Wind  
Wind Speed 2 mph (SSW)    
Max Wind Speed 7 mph    
Max Gust Speed -    
Visibility 10 miles    
Events      
Averages and records for this station are not official NWS values.
T = Trace of Precipitation, MM = Missing Value Source: NWS Daily Summary

Daily Weather History Graph

Daily Weather History Graph

Search for Another Location

Airport:

Trip Planner

Search our weather history database for the weather conditions in past years. The results will help you decide how hot, cold, wet, or windy it might be!

Date:

Astronomy

Feb. 06, 2013 Rise Set
Actual Time 7:19 AM EST 6:08 PM EST
Civil Twilight 6:54 AM EST 6:33 PM EST
Nautical Twilight 6:25 AM EST 7:02 PM EST
Astronomical Twilight 5:56 AM EST 7:31 PM EST
Moon 3:55 AM EST (2/6) 2:31 PM EST (2/6)
Length of Visible Light 11h 39m
Length of Day
10h 48m
Waning Crescent, 17% of the Moon is Illuminated
Feb 6
Waning Crescent
Feb 10
New
Feb 17
First Quarter
Feb 25
Full
Mar 4
Last Quarter

Hourly Weather History & Observations

Time (EST) Temp. Dew Point Humidity Pressure Visibility Wind Dir Wind Speed Gust Speed Precip Events Conditions
12:15 AM 55.4 °F 53.6 °F 94% 30.05 in 10.0 mi Calm Calm - N/A   Clear
12:35 AM 55.4 °F 53.6 °F 94% 30.05 in 10.0 mi Calm Calm - N/A   Mostly Cloudy
12:55 AM 55.4 °F 53.6 °F 94% 30.06 in 10.0 mi Calm Calm - N/A   Mostly Cloudy
1:15 AM 55.4 °F 53.6 °F 94% 30.06 in 10.0 mi SW 4.6 mph - N/A   Mostly Cloudy
1:35 AM 53.6 °F 51.8 °F 94% 30.06 in 10.0 mi SW 5.8 mph - N/A   Overcast
1:55 AM 55.4 °F 53.6 °F 94% 30.06 in 10.0 mi SW 4.6 mph - N/A   Overcast
2:15 AM 57.2 °F 53.6 °F 88% 30.06 in 10.0 mi Calm Calm - N/A   Overcast
2:35 AM 55.4 °F 53.6 °F 94% 30.05 in 10.0 mi Calm Calm - N/A   Overcast
2:55 AM 57.2 °F 53.6 °F 88% 30.06 in 10.0 mi Calm Calm - N/A   Overcast
3:15 AM 57.2 °F 53.6 °F 88% 30.06 in 10.0 mi Calm Calm - N/A   Mostly Cloudy
3:35 AM 55.4 °F 51.8 °F 88% 30.06 in 10.0 mi WSW 3.5 mph - N/A   Clear
3:55 AM 55.4 °F 53.6 °F 94% 30.06 in 10.0 mi Calm Calm - N/A   Clear
4:15 AM 53.6 °F 51.8 °F 94% 30.07 in 10.0 mi Calm Calm - N/A   Clear
4:35 AM 53.6 °F 53.6 °F 100% 30.08 in 10.0 mi Calm Calm - N/A   Clear
4:55 AM 53.6 °F 51.8 °F 94% 30.08 in 10.0 mi Calm Calm - N/A   Clear
5:15 AM 51.8 °F 51.8 °F 100% 30.09 in 7.0 mi Calm Calm - N/A   Clear
5:35 AM 53.6 °F 51.8 °F 94% 30.09 in 4.0 mi Calm Calm - N/A   Clear
5:55 AM 51.8 °F 51.8 °F 100% 30.10 in 1.8 mi Calm Calm - N/A   Mist
6:55 AM 51.8 °F 51.8 °F 100% 30.12 in 7.0 mi Calm Calm - N/A   Clear
7:35 AM 51.8 °F 50.0 °F 94% 30.13 in 5.0 mi Calm Calm - N/A   Clear
7:55 AM 53.6 °F 51.8 °F 94% 30.14 in 5.0 mi Calm Calm - N/A   Clear
8:15 AM 55.4 °F 55.4 °F 100% 30.14 in 7.0 mi Calm Calm - N/A   Clear
8:35 AM 55.4 °F 55.4 °F 100% 30.15 in 10.0 mi Calm Calm - N/A   Clear
8:55 AM 59.0 °F 55.4 °F 88% 30.15 in 10.0 mi Calm Calm - N/A   Clear
9:15 AM 62.6 °F 57.2 °F 82% 30.16 in 10.0 mi NNW 4.6 mph - N/A   Clear
9:35 AM 62.6 °F 55.4 °F 77% 30.17 in 10.0 mi North 4.6 mph - N/A   Clear
9:55 AM 64.4 °F 55.4 °F 73% 30.17 in 10.0 mi NNW 4.6 mph - N/A   Clear
10:15 AM 66.2 °F 51.8 °F 60% 30.17 in 10.0 mi NNE 5.8 mph - N/A   Clear
10:35 AM 68.0 °F 51.8 °F 56% 30.17 in 10.0 mi Calm Calm - N/A   Clear
10:55 AM 68.0 °F 50.0 °F 52% 30.17 in 10.0 mi Calm Calm - N/A   Clear
11:15 AM 69.8 °F 48.2 °F 46% 30.17 in 10.0 mi North 3.5 mph - N/A   Clear
11:35 AM 71.6 °F 46.4 °F 41% 30.17 in 10.0 mi East 3.5 mph - N/A   Clear
11:55 AM 71.6 °F 46.4 °F 41% 30.16 in 10.0 mi East 3.5 mph - N/A   Clear
12:15 PM 69.8 °F 48.2 °F 46% 30.15 in 10.0 mi Calm Calm - N/A   Clear
12:35 PM 71.6 °F 48.2 °F 43% 30.14 in 10.0 mi WSW 4.6 mph - N/A   Clear
12:55 PM 73.4 °F 50.0 °F 44% 30.13 in 7.0 mi East 6.9 mph - N/A   Clear
1:15 PM 71.6 °F 50.0 °F 46% 30.12 in 10.0 mi Calm Calm - N/A   Clear
1:35 PM 73.4 °F 50.0 °F 44% 30.12 in 10.0 mi SW 5.8 mph - N/A   Clear
1:55 PM 73.4 °F 50.0 °F 44% 30.12 in 10.0 mi Calm Calm - N/A   Clear
2:15 PM 73.4 °F 50.0 °F 44% 30.11 in 10.0 mi WNW 3.5 mph - N/A   Clear
2:35 PM 71.6 °F 50.0 °F 46% 30.11 in 10.0 mi NNW 4.6 mph - N/A   Clear
2:55 PM 75.2 °F 50.0 °F 41% 30.10 in 10.0 mi North 5.8 mph - N/A   Clear
3:15 PM 75.2 °F 50.0 °F 41% 30.10 in 10.0 mi NW 3.5 mph - N/A   Clear
3:35 PM 75.2 °F 50.0 °F 41% 30.10 in 10.0 mi WNW 3.5 mph - N/A   Scattered Clouds
3:55 PM 73.4 °F 50.0 °F 44% 30.10 in 10.0 mi Calm Calm - N/A   Scattered Clouds
4:15 PM 73.4 °F 50.0 °F 44% 30.10 in 10.0 mi Calm Calm - N/A   Clear
4:35 PM 73.4 °F 50.0 °F 44% 30.09 in 10.0 mi Calm Calm - N/A   Scattered Clouds
4:55 PM 73.4 °F 51.8 °F 47% 30.09 in 10.0 mi SSE 3.5 mph - N/A   Scattered Clouds
5:15 PM 73.4 °F 51.8 °F 47% 30.09 in 10.0 mi Calm Calm - N/A   Clear
5:35 PM 71.6 °F 51.8 °F 50% 30.09 in 10.0 mi Calm Calm - N/A   Clear
5:55 PM 69.8 °F 53.6 °F 56% 30.10 in 10.0 mi Calm Calm - N/A   Clear
6:15 PM 64.4 °F 53.6 °F 68% 30.11 in 10.0 mi Calm Calm - N/A   Clear
6:35 PM 64.4 °F 53.6 °F 68% 30.12 in 10.0 mi Calm Calm - N/A   Clear
6:55 PM 62.6 °F 53.6 °F 72% 30.12 in 10.0 mi Calm Calm - N/A   Clear
7:15 PM 62.6 °F 53.6 °F 72% 30.11 in 10.0 mi Calm Calm - N/A   Clear
7:35 PM 62.6 °F 53.6 °F 72% 30.11 in 10.0 mi Calm Calm - N/A   Clear
7:55 PM 59.0 °F 53.6 °F 82% 30.10 in 10.0 mi ESE 3.5 mph - N/A   Clear
8:15 PM 59.0 °F 53.6 °F 82% 30.12 in 10.0 mi South 3.5 mph - N/A   Clear
8:55 PM 59.0 °F 53.6 °F 82% 30.13 in 10.0 mi Calm Calm - N/A   Clear
9:55 PM 59.0 °F 53.6 °F 82% 30.15 in 10.0 mi South 3.5 mph - N/A   Clear
10:15 PM 60.8 °F 53.6 °F 77% 30.15 in 10.0 mi South 3.5 mph - N/A   Clear
10:35 PM 60.8 °F 53.6 °F 77% 30.15 in 10.0 mi South 4.6 mph - N/A   Clear
10:55 PM 59.0 °F 53.6 °F 82% 30.14 in 10.0 mi SSE 3.5 mph - N/A   Clear
11:15 PM 59.0 °F 53.6 °F 82% 30.14 in 10.0 mi SSE 3.5 mph - N/A   Clear
11:35 PM 57.2 °F 53.6 °F 88% 30.13 in 10.0 mi SSE 3.5 mph - N/A   Clear
11:55 PM 57.2 °F 53.6 °F 88% 30.13 in 10.0 mi SSE 4.6 mph - N/A   Clear